Theta_e
343 342 343 344 343 344 347 351 352 348 339 340 328 328 329 331 332 334 334 333 327 324 322 319 314 312 314 314 314 313 315 322 329 327 323 324 326 328 331 332 333 334 334
344 342 343 345 345 345 348 352 352 346 339 338 329 329 330 332 332 333 333 328 328 327 321 312 311 311 311 310 310 309 308 308 311 309 310 312 314 318 320 322 326 330 331
344 343 342 344 346 347 349 352 352 343 340 339 332 332 333 333 332 333 333 331 330 328 315 314 313 315 315 312 311 310 311 310 309 312 313 309 308 307 306 308 315 318 320
345 343 343 345 345 348 351 352 351 342 341 340 333 333 333 333 332 331 329 329 329 326 314 315 315 316 315 315 315 315 316 315 313 314 313 313 310 309 309 309 311 311 310
345 344 345 345 347 350 353 352 348 341 341 341 334 334 334 334 332 331 330 331 330 317 316 317 318 318 318 316 317 318 317 316 315 314 313 312 312 312 312 312 312 312 311
345 345 346 347 349 352 352 350 347 342 342 334 334 336 337 334 330 328 327 327 319 315 317 319 320 319 319 318 318 318 318 318 316 314 312 312 313 312 313 313 313 313 313
345 347 348 349 352 353 349 347 344 340 336 338 338 338 336 332 322 317 315 315 314 317 317 319 319 320 318 318 319 319 319 318 318 312 310 311 310 311 311 312 313 313 313
346 348 350 352 353 349 347 342 343 337 338 338 339 338 334 326 314 312 311 313 314 316 315 315 310 310 307 307 311 318 319 316 314 311 310 311 310 310 311 311 311 311 313
349 349 350 352 350 346 342 339 341 342 341 341 341 335 331 316 313 314 312 309 309 310 310 309 310 307 307 308 308 308 310 311 311 311 312 312 312 311 311 311 315 315 314
350 350 351 351 348 343 335 340 337 344 343 342 339 333 318 314 314 316 313 313 313 313 313 309 309 309 308 309 311 312 312 313 313 313 313 313 313 313 313 312 312 314 314
353 350 339 350 347 341 335 337 345 345 343 339 334 320 315 315 318 317 316 317 317 316 310 311 311 312 312 312 312 312 313 313 313 313 314 314 314 315 315 314 314 314 315
352 339 334 332 343 341 338 342 344 343 339 335 323 325 322 318 319 320 320 320 319 317 310 312 312 312 312 313 313 314 314 314 314 314 315 315 315 315 315 313 313 313 311
350 340 334 336 340 339 341 333 341 341 338 333 329 328 320 319 320 321 321 322 319 311 311 313 313 314 314 315 315 315 315 314 313 314 315 315 315 314 311 312 312 311 311
341 333 333 333 342 342 340 341 343 340 336 332 325 318 320 321 322 322 322 321 315 312 313 314 315 315 314 314 316 315 314 313 312 312 314 314 313 312 312 312 311 311 310
334 333 335 340 343 342 343 341 340 337 335 330 318 319 320 321 322 318 313 310 312 315 315 315 315 314 314 315 315 314 313 312 312 313 313 312 313 312 312 310 309 309 307
334 333 342 342 344 345 343 340 337 336 327 319 321 322 322 320 315 311 313 314 315 315 315 315 315 315 315 315 314 313 312 313 312 312 312 312 312 310 308 306 305 305 305
334 344 344 344 345 344 340 337 337 323 320 322 318 314 311 312 312 314 315 315 315 315 315 315 315 316 315 314 313 311 312 312 311 312 312 311 310 306 304 306 305 304 304
342 343 344 345 343 342 339 337 333 320 322 315 313 312 314 315 315 315 315 315 315 315 316 316 316 315 314 312 311 311 312 310 312 312 311 309 307 305 305 305 304 303 304
340 339 338 343 343 340 334 337 325 322 317 317 313 314 315 315 315 315 315 316 317 317 317 317 316 314 311 310 310 308 310 311 311 312 310 308 307 306 304 304 304 304 304
339 342 342 341 342 338 336 334 322 322 318 314 314 316 315 315 315 315 317 317 317 318 317 315 312 305 304 304 307 309 310 312 312 312 309 309 308 306 306 305 305 305 305
343 343 342 342 337 333 338 333 323 320 316 315 315 315 315 315 317 316 318 318 318 317 315 308 305 304 305 307 308 310 311 312 312 311 310 308 307 307 307 307 306 306 306
342 342 340 337 334 336 336 327 323 319 316 316 316 315 315 315 317 318 318 318 319 316 307 304 304 303 304 308 310 312 312 312 311 310 309 309 308 308 308 308 308 307 307
338 340 336 333 337 337 330 322 320 319 318 318 317 316 316 317 318 318 318 318 319 312 305 304 304 303 305 308 310 312 312 311 311 310 309 309 309 309 309 309 310 310 310
338 338 333 334 337 332 321 319 319 318 318 317 315 316 317 319 319 319 318 319 318 308 305 305 304 304 308 312 313 312 312 311 311 310 309 309 309 310 311 311 310 311 311
335 334 333 335 335 327 319 320 320 318 315 315 316 317 319 319 318 319 318 319 315 305 305 305 304 305 311 314 313 313 313 311 311 310 310 310 311 311 312 311 311 311 311
335 335 335 333 325 321 320 321 315 314 315 317 318 319 320 320 320 319 320 319 309 305 306 305 304 309 314 314 314 314 313 312 312 312 312 312 312 312 311 311 311 313 313
Wind_Speed
26 26 22 21 22 23 21 19 14 12 12 10 9 6 4 3 1 0 2 4 5 6 6 7 5 4 3 3 2 2 3 2 2 4 6 8 8 9 9 10 8 7 7
29 27 24 20 19 21 23 20 15 15 15 13 11 8 4 3 2 3 4 4 4 6 7 5 4 3 4 5 5 5 4 3 2 3 6 7 9 10 10 10 12 10 8
29 28 27 22 19 21 24 21 16 17 16 14 12 8 5 4 4 4 4 3 4 7 6 4 4 5 6 6 8 9 9 10 10 8 9 11 11 10 9 9 9 10 9
28 29 28 25 21 22 25 23 20 19 18 16 14 10 6 4 6 5 5 5 4 6 3 3 3 4 5 6 7 8 9 9 10 10 10 11 13 14 12 11 9 9 9
29 30 28 23 21 22 25 22 22 21 21 18 15 12 9 7 7 7 6 6 6 4 1 1 1 2 4 5 6 7 10 10 10 11 11 12 10 11 11 12 11 12 11
29 29 27 23 22 25 25 19 23 23 23 21 17 13 9 8 7 8 9 8 5 3 2 2 3 5 6 8 9 9 11 12 14 15 12 13 11 12 11 12 11 11 10
28 27 25 23 24 24 16 17 26 25 23 20 15 11 9 7 7 7 7 6 5 5 4 4 5 7 10 12 13 14 13 14 15 17 17 12 13 12 14 13 11 11 11
25 26 25 24 23 15 14 19 25 26 23 19 15 11 9 8 5 5 5 6 5 5 4 5 5 9 11 12 12 14 13 12 12 15 16 16 14 13 13 12 13 14 13
23 24 26 27 25 24 18 24 29 24 21 18 12 9 9 7 6 5 5 4 4 3 4 6 11 12 9 8 7 7 7 8 12 16 18 19 17 15 16 17 12 13 15
22 26 28 29 29 25 8 26 31 25 19 15 12 11 9 7 8 7 6 5 2 2 6 10 10 8 6 4 4 8 12 14 18 21 22 21 20 17 16 18 17 16 16
14 15 28 8 23 17 17 30 31 26 21 17 14 10 7 8 9 8 6 5 3 5 7 5 4 4 5 7 10 14 17 20 24 25 22 19 16 14 12 16 18 17 16
22 10 36 35 19 20 20 26 23 25 20 17 16 9 7 11 13 11 10 8 7 7 5 3 4 6 8 11 15 18 22 24 26 22 18 17 16 14 13 18 19 20 21
15 17 6 9 15 25 25 23 28 23 16 21 18 16 16 13 14 12 13 11 10 8 6 6 8 10 14 17 20 22 21 20 19 17 17 16 15 15 22 25 27 28 29
11 11 7 16 22 29 24 23 25 19 24 24 20 16 15 14 13 14 13 12 11 9 8 10 12 16 19 21 23 21 21 22 21 19 15 15 16 17 20 22 24 20 28
9 10 14 14 25 28 25 23 21 21 20 18 15 15 16 14 13 11 10 10 9 8 11 13 16 20 21 20 18 21 23 23 18 12 14 16 19 21 21 23 28 25 26
13 10 14 18 26 28 24 24 21 16 16 14 11 11 13 13 11 9 9 8 7 9 14 17 19 17 19 19 22 21 17 14 13 18 16 20 21 23 24 20 18 13 12
8 15 18 23 27 31 28 25 24 22 19 16 13 12 12 11 12 11 8 6 9 14 18 18 16 17 19 22 18 16 14 14 21 16 18 20 23 16 14 11 10 10 12
14 14 16 20 31 28 26 25 24 24 23 18 14 16 16 14 10 7 7 8 12 14 13 14 16 18 22 20 15 15 15 20 16 15 22 19 14 10 8 8 10 13 17
21 19 15 23 28 25 24 24 23 23 22 15 19 18 16 12 7 6 7 9 8 9 12 14 17 18 15 15 15 18 20 17 18 21 17 14 14 12 12 11 13 18 19
20 20 13 26 29 25 26 25 24 23 19 19 19 16 16 9 7 6 6 6 8 11 14 16 17 18 18 18 18 18 16 14 17 14 14 12 14 13 12 15 16 17 19
17 17 15 28 24 26 27 25 25 24 22 20 16 17 15 10 6 7 5 7 8 13 17 16 16 17 16 16 19 15 15 17 12 10 12 12 12 12 12 13 14 16 20
15 18 26 27 27 32 28 26 25 26 23 18 14 13 14 9 7 7 6 6 9 15 15 15 16 17 17 20 21 19 15 12 9 9 12 12 11 12 13 14 16 20 22
13 27 28 25 32 31 27 26 24 24 21 16 13 13 11 9 7 6 7 7 11 15 14 15 17 18 20 22 22 17 14 10 8 9 11 12 12 12 13 15 17 19 21
18 25 26 31 31 29 29 27 25 22 17 16 15 12 9 8 7 7 7 8 13 14 14 15 18 20 23 22 20 14 12 10 7 9 9 10 12 12 12 13 15 17 19
17 25 27 33 32 33 30 26 22 20 18 16 13 10 8 5 5 6 5 9 13 13 14 17 21 23 25 22 15 11 9 8 4 6 8 10 10 10 10 12 16 19 22
22 23 25 29 35 33 31 24 22 21 19 15 10 8 5 5 4 3 5 10 12 12 14 18 21 25 22 16 11 9 7 5 6 6 7 7 8 9 10 13 18 21 27
Wind_Direction
234 242 243 244 244 238 236 237 236 224 212 206 195 191 189 195 214 293 337 348 4 14 5 351 346 348 3 355 342 335 325 327 306 308 328 326 320 311 317 322 329 318 325
232 238 241 246 244 233 228 227 226 218 208 204 199 199 201 234 279 310 321 344 5 2 357 2 26 45 41 37 32 29 21 6 35 359 331 332 329 328 329 329 326 324 330
228 232 236 240 243 229 222 220 219 211 207 207 204 203 208 239 282 292 292 306 335 347 356 30 54 71 52 56 53 46 40 30 20 14 5 351 340 329 318 308 301 310 324
224 228 233 236 240 227 216 218 211 202 206 207 203 202 218 256 278 281 291 286 299 323 349 30 83 75 74 60 45 30 18 11 1 7 355 349 342 334 333 325 326 314 296
226 230 232 230 227 216 213 217 202 200 203 207 206 204 216 242 260 275 283 277 278 296 336 68 67 30 8 5 4 354 355 1 359 352 348 346 342 344 339 335 328 321 319
225 229 227 223 217 208 210 209 204 204 204 201 200 204 220 236 258 267 262 254 255 220 233 270 305 315 312 305 307 316 327 334 341 342 342 337 342 344 342 344 337 337 331
226 223 221 212 204 207 216 208 207 204 200 198 199 211 228 239 265 267 253 240 236 230 254 289 284 284 293 290 289 294 306 318 324 329 336 333 331 334 339 344 336 333 324
222 219 213 201 199 194 194 216 218 205 199 199 201 208 220 250 248 236 225 239 231 236 253 281 297 309 306 296 291 289 296 304 310 313 318 323 317 314 314 315 321 323 322
214 215 212 203 190 189 201 221 225 212 201 194 202 211 230 232 221 203 196 200 212 223 270 290 306 312 312 316 315 306 300 299 299 307 310 309 302 296 297 300 294 300 306
223 226 217 198 195 200 236 210 209 207 200 202 201 205 218 214 196 187 177 173 191 264 300 310 320 328 331 343 333 320 317 320 315 317 319 325 321 310 290 289 296 285 287
200 141 2 201 197 214 233 198 200 197 194 194 192 198 211 211 202 202 203 217 245 290 312 323 354 5 343 334 329 324 321 315 312 314 313 315 314 312 306 301 298 294 283
183 281 317 310 258 255 211 194 198 198 188 189 186 193 213 213 216 218 227 243 268 285 288 287 304 320 321 319 312 311 308 307 308 305 303 306 306 305 304 303 302 298 293
212 272 151 77 234 236 198 198 197 188 207 192 203 209 199 205 213 226 237 248 264 261 246 266 285 301 309 313 317 319 318 320 315 306 303 303 303 299 302 301 298 296 295
215 182 266 178 189 191 191 200 201 208 202 208 209 193 194 207 221 237 247 251 249 233 252 272 294 308 314 318 323 323 325 323 319 312 302 302 304 305 308 311 306 302 299
234 271 211 194 185 185 189 199 199 209 209 218 198 198 204 208 226 224 235 223 217 240 266 289 306 315 315 319 320 325 324 322 318 308 308 307 307 307 304 290 307 306 306
281 192 182 188 192 189 191 186 195 199 200 184 182 204 213 216 208 196 186 195 230 265 286 299 310 310 318 321 324 325 324 318 313 313 312 311 307 302 308 311 314 320 316
238 187 186 187 195 185 183 188 188 185 180 182 186 204 193 172 162 173 188 234 272 288 295 306 307 319 323 324 324 321 319 310 314 315 316 307 316 318 323 327 321 314 314
222 213 202 194 189 186 187 192 193 185 180 178 176 178 168 167 177 205 248 282 295 304 308 311 316 321 323 321 321 317 315 316 317 317 316 321 323 331 324 316 312 314 318
225 212 197 188 192 188 193 195 190 186 181 182 172 178 181 181 207 253 291 304 304 303 307 311 319 322 321 320 317 316 319 314 314 318 321 328 333 314 319 316 314 321 323
225 226 215 200 191 192 194 192 188 182 180 178 181 188 189 200 230 272 304 309 308 311 314 320 323 323 322 324 321 318 318 312 309 314 322 329 337 332 330 330 330 330 333
222 215 206 188 200 194 195 195 183 179 182 181 188 195 198 207 236 276 274 303 315 321 322 325 326 327 330 332 326 319 310 310 305 311 319 330 332 335 338 340 337 328 324
233 213 185 197 195 191 196 185 180 186 181 183 188 191 200 215 243 250 275 289 317 329 330 332 333 336 333 331 329 326 320 309 301 312 316 326 332 332 334 334 328 325 324
221 205 201 200 191 191 185 177 183 183 184 185 189 188 197 222 226 255 260 287 323 333 336 337 343 341 337 332 328 329 320 308 302 312 316 327 333 330 334 337 339 341 349
228 211 197 195 192 182 175 173 174 178 182 188 182 187 208 222 235 259 258 306 329 337 338 343 345 342 339 335 331 325 317 308 300 312 317 325 331 335 338 341 338 338 338
208 202 206 201 189 172 169 170 180 176 174 174 179 193 210 230 246 243 281 322 334 338 341 348 346 343 342 339 339 332 325 314 322 325 325 336 341 348 348 349 340 332 332
205 210 218 208 164 165 166 171 168 164 166 168 179 188 210 236 225 253 312 330 337 339 348 350 348 346 346 351 359 356 356 17 15 5 1 5 360 1 360 340 334 336 335